Location: Unspecified
(35.7250°N, 0.0000°E)
Time: 15:36:58
(UTC+00:00)

Vanguard 1 - Pass Details

Date: 27 June 2019
Orbit: 653 x 3830 km, 34.3° (Epoch: 20 July)

Event Time Altitude Azimuth Distance (km) Brightness Sun altitude
Rises 05:09:50 0° 277° (W) 7,100 13.9 3.4°
Reaches altitude 10° 05:15:15 10° 277° (W) 5,632 13.4 4.4°
Maximum altitude 05:30:18 75° 195° (SSW) 1,784 11.4 7.2°
Drops below altitude 10° 05:38:05 10° 112° (ESE) 3,093 13.4 8.6°
Sets 05:40:14 0° 110° (ESE) 3,807 13.9 9.1°
